Location: Caltech
(34.1382°N, 118.1253°W)
Time: 07:05:29
(UTC-07:00)

Cosmos 1758 Rocket - Visible Passes

Search period start: 28 May 2015 00:00
Search period end: 07 June 2015 00:00
Orbit: 604 x 636 km, 82.5° (Epoch: 27 May)

Date Brightness Start Highest point End Pass type
(mag) Time Alt. Az. Time Alt. Az. Time Alt. Az.
28 May 3.7 21:20:45 10° S 21:25:13 77° W 21:29:43 10° N visible
29 May 5.0 21:38:46 10° SSW 21:42:56 37° W 21:47:07 10° N visible
30 May 6.2 21:57:28 10° WSW 22:00:49 20° WNW 22:04:02 10° NNW visible
31 May 3.7 20:36:02 10° S 20:40:24 57° E 20:44:50 10° NNE visible
01 Jun 3.9 20:53:35 10° SSW 20:58:02 70° W 21:02:32 10° N visible
02 Jun 5.3 21:11:41 10° SW 21:15:47 34° WNW 21:19:53 10° NNW visible
03 Jun 6.4 21:30:30 10° WSW 21:33:40 18° WNW 21:36:41 10° NNW visible
05 Jun 4.2 20:26:26 10° SSW 20:30:52 63° W 20:35:20 10° N visible
06 Jun 5.7 20:44:36 10° SW 20:48:38 31° WNW 20:52:37 10° NNW visible
